Theta_e
323 326 328 331 334 337 341 344 346 354 351 345 341 337 333 336 335 337 340 341 341 342 340 338 339 338 336 336 337 333 332 332 334 329 329 332 333 334 334 331 331 335 335
321 323 327 334 334 336 339 340 343 350 350 345 343 338 338 334 336 337 340 341 339 340 338 338 338 338 337 335 333 334 330 331 332 326 327 321 326 330 330 331 333 335 334
320 323 324 333 334 335 338 339 342 347 348 347 342 340 338 338 335 333 335 339 338 340 338 337 337 336 339 335 335 334 331 327 333 332 328 321 317 322 330 331 331 335 337
321 323 325 332 334 335 338 340 343 343 341 346 343 346 334 330 331 336 336 337 336 336 336 336 336 335 341 334 334 333 331 332 327 331 332 333 330 319 319 330 335 339 339
320 322 327 331 333 336 337 340 341 340 341 342 345 335 336 331 334 333 336 338 338 335 335 335 335 336 334 336 334 333 333 335 332 333 331 332 328 326 326 319 326 335 341
321 325 331 332 333 335 337 338 338 338 339 338 339 340 337 334 332 333 335 338 338 337 336 333 334 336 335 334 334 335 334 335 335 338 333 335 328 323 323 330 330 329 334
325 327 328 329 331 333 335 336 336 336 337 337 337 337 337 337 336 333 335 334 332 336 336 335 336 335 336 336 336 335 334 335 335 334 334 339 335 334 333 333 330 327 330
326 327 328 329 330 332 333 334 334 334 335 335 336 337 338 334 333 335 333 335 334 335 336 335 336 336 336 336 337 332 333 335 336 333 335 335 338 336 337 336 333 325 326
326 327 329 330 330 332 332 333 334 334 334 334 336 336 337 335 336 336 336 333 335 333 334 334 335 335 335 335 336 337 335 333 334 334 335 335 337 332 337 340 339 331 319
326 327 328 329 331 332 332 335 334 333 333 334 335 335 335 336 336 335 334 335 335 333 333 334 335 335 335 335 336 336 335 334 336 334 335 334 332 334 337 339 338 338 329
325 326 328 329 331 332 333 334 333 331 331 334 334 336 335 335 335 334 333 335 334 335 331 331 333 333 334 335 336 334 332 332 333 332 330 331 333 336 339 334 334 331 330
325 326 327 329 329 330 332 332 331 330 331 332 333 334 334 335 335 334 332 334 333 333 330 331 330 331 333 335 332 330 330 331 330 332 330 328 332 334 335 334 331 331 327
324 326 327 327 328 330 331 329 329 328 331 332 332 334 333 335 335 333 334 332 331 330 330 330 329 331 332 332 332 331 329 332 330 327 327 329 329 332 332 330 328 327 324
324 325 326 327 328 329 328 326 327 328 330 330 331 333 334 335 335 335 333 331 330 329 330 331 331 331 332 332 332 333 332 331 329 328 328 328 329 331 330 329 327 325 321
323 324 325 326 328 328 326 325 326 327 330 329 330 333 334 334 332 332 331 331 330 330 332 332 331 332 333 330 332 333 334 333 333 332 329 330 327 324 329 328 327 325 322
323 324 325 327 327 326 324 325 326 327 329 328 330 332 332 331 332 332 331 331 331 332 333 331 332 332 328 310 313 323 333 333 332 329 328 331 325 318 314 317 319 325 325
323 325 326 327 327 326 325 325 326 327 328 328 330 330 330 330 330 331 331 331 335 337 334 334 333 332 330 308 308 310 334 335 333 332 330 330 331 328 327 313 312 313 313
324 326 327 329 329 327 325 326 326 326 326 328 329 330 329 329 330 331 331 333 338 335 334 334 334 333 326 305 305 306 335 335 333 333 333 333 333 330 328 329 326 325 324
327 328 329 331 329 326 325 325 325 324 326 328 329 329 330 330 331 331 332 334 337 337 336 336 334 332 329 304 303 314 334 333 331 332 335 334 332 308 310 327 324 321 319
329 329 330 331 329 326 326 325 324 323 324 328 329 330 331 331 331 333 334 335 335 333 334 334 334 323 330 303 302 314 333 333 333 334 329 309 324 306 309 330 324 321 322
330 331 331 331 329 327 326 324 324 323 325 329 330 331 332 332 334 334 335 335 334 333 335 333 334 333 330 323 303 306 331 333 331 329 330 326 301 303 307 316 331 326 327
328 331 330 331 330 327 325 324 324 325 326 327 330 332 333 332 333 334 332 332 333 334 334 333 331 331 332 314 304 303 311 317 329 328 330 320 299 303 308 319 303 303 317
328 331 331 331 329 327 326 324 326 325 326 326 330 332 333 333 334 334 331 328 331 330 332 330 332 329 330 328 304 306 306 310 334 333 313 300 298 298 305 301 304 305 330
327 330 331 330 328 327 326 326 326 325 325 325 328 330 331 331 333 331 330 326 326 327 328 327 328 330 329 329 330 330 325 309 321 310 317 315 311 305 311 313 313 329 329
327 330 330 331 329 327 326 326 327 325 325 326 326 328 329 331 331 331 328 328 330 322 325 328 329 329 329 329 321 322 330 332 325 328 329 328 329 328 323 323 325 327 329
327 329 331 331 330 327 325 326 326 325 326 327 325 325 326 328 330 328 329 298 304 303 305 302 314 326 310 305 303 304 304 301 305 326 326 326 326 326 326 325 324 325 321
Wind_Speed
24 23 19 4 6 7 7 11 13 13 13 12 12 11 10 8 7 6 7 6 7 4 7 5 7 5 7 9 8 7 8 7 7 4 4 5 8 6 4 7 7 7 6
26 23 15 7 6 8 10 12 14 14 13 10 10 8 7 8 8 7 6 6 6 7 2 6 7 9 7 8 8 8 6 6 5 5 4 4 4 7 8 4 6 5 5
24 19 17 8 7 10 12 13 15 16 13 12 7 6 5 2 4 5 7 7 6 3 6 7 7 7 6 6 6 7 9 7 6 10 5 4 6 9 8 5 5 6 6
19 19 11 10 10 10 12 14 15 16 13 11 10 9 8 7 5 2 1 2 2 6 4 5 7 7 4 6 6 7 8 6 7 6 9 10 5 6 7 6 8 7 9
20 19 12 12 11 12 13 15 16 15 14 11 9 8 6 6 3 3 2 4 2 3 6 6 4 6 5 5 6 5 7 6 6 6 8 9 7 11 2 10 7 5 5
16 6 12 14 13 14 15 16 17 14 14 11 10 8 6 1 1 4 1 1 2 3 6 7 4 3 5 4 6 6 6 5 5 4 4 3 4 6 3 5 7 7 5
10 12 15 15 16 17 17 17 17 15 13 12 10 7 6 4 4 3 4 5 3 3 6 4 1 3 3 6 5 5 5 5 4 4 4 5 2 3 2 3 6 4 3
11 14 15 16 18 18 18 17 16 15 13 12 10 7 6 7 4 3 5 5 3 5 6 4 3 3 5 5 5 5 4 2 2 3 3 2 3 2 3 4 6 7 4
14 16 17 17 18 18 17 17 16 14 13 11 9 7 6 1 6 4 2 5 4 4 4 3 1 4 4 3 3 2 3 3 2 3 3 3 3 3 2 4 6 7 5
16 17 16 18 16 16 16 15 14 14 12 11 9 8 6 4 5 3 1 4 5 4 5 3 1 2 3 2 2 1 1 1 2 1 2 1 3 2 1 4 4 3 10
17 17 17 17 17 16 15 14 13 13 11 10 9 6 6 5 5 4 4 5 4 4 4 4 4 3 4 2 2 2 2 4 5 4 3 1 2 2 3 4 4 6 9
18 17 18 18 17 16 15 14 12 12 11 10 9 7 7 4 4 5 5 10 5 5 4 3 1 6 3 6 4 1 2 5 5 1 2 1 4 4 7 6 8 8 12
18 18 18 17 17 16 15 14 12 12 12 10 10 7 6 5 5 6 5 6 7 6 4 3 3 8 4 5 5 4 2 2 6 4 0 4 5 8 8 9 10 9 10
18 18 17 16 16 15 15 14 12 12 11 10 9 8 7 5 6 4 7 7 6 6 5 4 8 4 9 7 2 4 6 4 7 6 2 2 4 11 10 11 13 13 13
17 17 17 16 16 15 14 13 12 12 11 9 8 8 7 8 8 6 7 7 6 7 4 5 6 4 8 4 5 5 5 7 8 7 5 4 4 9 11 11 12 15 12
16 16 17 17 16 16 14 13 12 12 11 9 11 9 8 8 8 7 7 7 4 3 4 5 5 6 8 9 10 8 4 8 9 8 8 8 13 15 14 15 12 13 15
14 15 16 16 15 15 14 13 12 12 11 10 11 10 9 9 9 9 9 8 4 3 5 4 4 8 7 6 7 9 3 9 9 10 8 8 10 14 15 17 17 16 13
13 15 14 15 14 15 15 13 13 13 12 11 11 11 11 10 10 8 7 6 5 4 4 5 8 7 7 2 5 9 6 8 10 10 10 11 12 14 13 16 14 12 12
14 14 14 15 14 15 15 14 14 13 12 12 12 12 12 11 10 6 7 6 6 5 5 7 7 8 7 2 3 8 8 8 8 8 11 11 15 12 14 15 14 12 8
13 14 16 16 15 15 15 15 15 14 13 13 12 13 12 10 9 8 8 6 5 4 7 8 7 9 9 3 4 7 6 10 8 11 8 13 12 10 9 15 12 13 11
5 14 16 15 15 16 15 15 15 14 13 14 13 13 12 11 11 8 6 6 5 7 8 8 7 9 10 6 6 5 5 8 9 11 11 9 8 10 10 11 11 14 13
11 15 15 16 16 17 16 15 15 15 14 14 14 13 13 10 10 9 7 6 6 7 7 7 7 8 9 7 7 5 1 1 10 11 11 7 6 10 10 9 11 13 14
11 14 15 17 17 17 17 16 15 15 15 15 14 13 14 10 11 9 8 7 6 7 8 7 7 7 8 7 6 7 7 10 6 9 12 12 8 12 10 9 11 13 9
10 13 16 18 17 17 17 16 16 16 16 15 14 13 12 10 11 9 8 7 7 5 9 8 6 8 8 8 9 7 7 10 9 11 9 6 7 4 10 7 5 8 8
7 12 15 16 18 18 18 17 17 17 15 15 14 13 12 11 11 9 7 7 6 4 5 5 8 8 9 10 11 10 9 8 10 10 8 7 8 9 9 8 8 7 6
6 11 14 16 18 19 19 18 18 17 16 14 13 12 11 12 11 10 8 11 9 9 10 11 6 6 9 18 14 10 9 10 13 7 7 6 7 8 9 9 8 7 7
Wind_Direction
279 280 273 261 267 252 210 185 184 182 168 179 186 189 184 195 197 213 218 237 248 257 248 248 244 241 240 239 243 235 244 242 267 260 253 228 240 262 229 212 218 216 195
275 268 264 154 207 195 182 185 183 166 179 174 193 183 192 185 202 200 198 223 260 243 216 235 245 253 243 240 229 230 233 248 231 212 219 203 218 238 230 221 205 204 178
261 268 257 155 174 184 177 174 173 165 180 175 168 162 163 160 185 209 216 192 223 241 223 233 237 254 243 254 234 238 233 234 216 209 214 192 210 171 218 218 243 172 201
257 244 225 157 176 170 167 160 157 166 174 159 154 166 179 200 200 210 41 181 159 250 254 248 233 229 236 240 243 223 237 226 226 204 226 254 292 173 171 196 218 209 198
243 248 162 158 166 155 156 153 155 169 147 179 164 171 221 175 211 214 119 225 247 272 259 222 224 217 234 244 232 230 213 221 217 206 215 215 251 203 154 168 180 205 208
229 153 134 148 149 155 152 151 157 154 160 160 155 210 153 275 227 200 179 134 211 231 251 238 219 195 216 223 222 203 198 209 231 222 222 235 251 263 175 132 165 169 162
127 148 153 155 155 153 151 153 155 151 159 156 159 157 162 169 193 249 189 188 185 210 224 213 198 239 234 224 206 192 199 199 211 223 223 207 198 260 281 186 159 146 124
152 159 157 150 151 150 153 151 152 155 158 159 164 153 148 187 213 168 337 85 157 201 180 181 172 220 221 216 204 199 228 194 223 235 226 233 229 245 230 192 160 141 107
160 154 150 154 150 150 153 150 154 155 161 159 162 155 169 65 67 70 234 112 170 175 159 132 172 235 144 212 225 251 196 194 237 300 259 214 220 288 267 193 195 155 134
155 150 152 149 146 150 147 154 154 157 160 161 156 164 149 151 136 164 162 103 168 138 136 136 150 154 68 57 112 127 210 183 258 241 239 220 317 312 192 175 175 131 138
152 153 148 144 148 149 148 152 155 159 159 161 169 129 147 173 163 132 161 147 156 148 201 167 182 142 97 104 88 83 196 202 224 151 238 7 289 192 127 106 127 131 119
155 154 148 150 153 151 154 159 158 157 163 167 165 145 160 197 124 168 155 139 207 174 201 182 66 83 96 67 64 96 238 193 195 66 230 186 264 140 100 96 96 95 123
155 151 151 158 155 155 159 158 162 160 167 172 158 150 147 162 160 164 133 176 153 180 194 176 173 85 87 120 100 108 110 165 106 103 283 141 196 120 110 102 102 102 121
155 155 160 160 157 160 161 157 166 163 163 170 160 142 139 155 172 147 159 163 174 168 183 195 95 163 121 97 98 126 133 152 131 138 146 153 141 126 123 113 114 113 120
165 162 166 162 157 160 160 159 165 159 161 167 152 106 124 169 142 157 153 158 166 191 156 103 136 120 93 66 34 53 107 116 126 139 140 59 67 131 129 129 127 125 131
172 168 168 163 163 161 164 161 164 155 163 167 133 161 132 136 136 143 148 164 163 159 137 175 140 133 84 35 26 1 90 111 96 110 96 99 91 78 80 97 108 135 137
176 175 174 167 163 164 165 164 163 159 162 170 140 136 140 137 146 156 163 156 140 161 148 133 93 97 100 39 6 347 32 109 112 107 96 103 107 107 101 90 93 85 87
177 177 175 167 166 163 162 166 162 165 167 165 151 142 149 146 152 157 141 149 128 144 135 143 146 129 102 89 335 319 102 109 120 123 132 121 120 118 120 116 106 99 111
175 176 173 166 167 168 160 168 164 169 170 162 154 153 147 152 152 143 151 155 138 151 153 149 144 135 121 150 314 310 95 111 109 130 128 124 119 117 121 124 110 102 99
166 172 171 164 169 171 167 170 166 173 173 163 162 153 153 149 147 137 148 152 176 158 104 120 141 116 116 115 356 332 97 119 106 106 103 65 106 97 146 123 122 127 140
212 170 168 168 171 170 172 179 169 176 174 162 165 155 150 155 130 136 145 159 196 104 107 117 109 121 116 114 27 14 136 131 128 116 116 103 70 86 95 145 143 138 148
245 176 171 169 171 172 178 184 176 177 173 166 168 157 150 173 144 146 148 161 125 131 125 129 131 125 117 105 84 59 175 16 124 124 116 103 72 90 103 138 132 139 150
229 183 175 171 174 177 181 185 180 180 173 169 168 166 163 185 149 160 162 153 186 149 154 153 151 132 128 128 94 81 58 42 113 115 105 126 126 106 92 109 129 158 172
224 190 178 175 177 181 183 188 179 185 175 171 171 170 174 187 160 175 176 177 181 181 163 150 151 149 155 144 146 141 127 117 99 119 132 127 120 96 114 142 166 212 164
212 202 187 181 179 182 184 188 180 186 177 174 175 176 183 190 169 200 178 201 180 172 184 153 154 159 157 153 151 161 160 166 147 141 149 166 169 155 161 165 188 178 169
250 208 194 190 181 183 185 186 183 185 180 177 180 183 185 181 184 192 162 50 51 83 65 67 49 115 109 129 138 130 136 126 141 161 174 182 186 183 176 180 185 178 191